Weather History for Thomson, GA

Change the Weather History Date:

Saturday, October 13, 2012

  Actual Average (KDBN) Record (KDBN)
Temperature  
Mean Temperature 62 °F -  
Max Temperature 73 °F 80 °F 90 °F (1954)
Min Temperature 50 °F 51 °F 38 °F (1976)
Degree Days  
Heating Degree Days 4    
Growing Degree Days 12 (Base 50)    
Moisture  
Dew Point 54 °F    
Average Humidity 79    
Maximum Humidity 100    
Minimum Humidity 53    
Precipitation  
Precipitation 0.00 in - - ()
Sea Level Pressure  
Sea Level Pressure 30.36 in    
Wind  
Wind Speed 4 mph (ENE)    
Max Wind Speed 13 mph    
Max Gust Speed 20 mph    
Visibility 9 miles    
Events      
Averages and records for this station are not official NWS values.
T = Trace of Precipitation, MM = Missing Value Source: NWS Daily Summary

Daily Weather History Graph

Daily Weather History Graph

Search for Another Location

Airport:

Trip Planner

Search our weather history database for the weather conditions in past years. The results will help you decide how hot, cold, wet, or windy it might be!

Date:

Astronomy

Oct. 13, 2012 Rise Set
Actual Time 7:33 AM EDT 6:58 PM EDT
Civil Twilight 7:08 AM EDT 7:23 PM EDT
Nautical Twilight 6:39 AM EDT 7:52 PM EDT
Astronomical Twilight 6:10 AM EDT 8:20 PM EDT
Moon 5:26 AM EDT (10/13) 5:38 PM EDT (10/13)
Length of Visible Light 12h 14m
Length of Day
11h 24m
Waning Crescent, 5% of the Moon is Illuminated
Oct 13
Waning Crescent
Oct 15
New
Oct 21
First Quarter
Oct 29
Full
Nov 6
Last Quarter

Hourly Weather History & Observations

Time (EDT) Temp. Dew Point Humidity Pressure Visibility Wind Dir Wind Speed Gust Speed Precip Events Conditions
1:35 AM 56.8 °F 56.7 °F 99% 30.30 in 10.0 mi East 3.5 mph - N/A   Clear
1:55 AM 55.8 °F 55.8 °F 100% 30.30 in 10.0 mi Calm Calm - N/A   Clear
2:15 AM 55.8 °F 55.8 °F 100% 30.31 in 10.0 mi Calm Calm - N/A   Clear
2:55 AM 53.8 °F 53.8 °F 100% 30.31 in 7.0 mi Calm Calm - N/A   Clear
3:15 AM 54.0 °F 54.0 °F 100% 30.32 in 10.0 mi Calm Calm - N/A   Clear
3:35 AM 53.4 °F 53.4 °F 100% 30.32 in 7.0 mi Calm Calm - N/A   Clear
3:55 AM 53.1 °F 53.1 °F 100% 30.32 in 7.0 mi Calm Calm - N/A   Clear
4:35 AM 52.3 °F 52.3 °F 100% 30.33 in 5.0 mi Calm Calm - N/A   Clear
4:55 AM 51.6 °F 51.6 °F 100% 30.34 in 5.0 mi Calm Calm - N/A   Clear
5:15 AM 51.1 °F 51.1 °F 100% 30.34 in 5.0 mi Calm Calm - N/A   Clear
5:35 AM 51.6 °F 51.6 °F 100% 30.34 in 5.0 mi Calm Calm - N/A   Clear
6:35 AM 50.4 °F 50.4 °F 100% 30.36 in 7.0 mi Calm Calm - N/A   Mostly Cloudy
6:55 AM 50.4 °F 50.4 °F 100% 30.37 in 5.0 mi Calm Calm - N/A   Mostly Cloudy
7:15 AM 50.4 °F 50.4 °F 100% 30.38 in 5.0 mi Calm Calm - N/A   Scattered Clouds
7:35 AM 50.2 °F 50.2 °F 100% 30.39 in 5.0 mi Calm Calm - N/A   Mostly Cloudy
7:55 AM 50.0 °F 50.0 °F 100% 30.39 in 5.0 mi NE 5.8 mph - N/A   Scattered Clouds
8:15 AM 55.6 °F 53.1 °F 91% 30.40 in 10.0 mi NE 8.1 mph - N/A   Clear
8:55 AM 58.5 °F 52.7 °F 81% 30.42 in 10.0 mi ENE 9.2 mph - N/A   Clear
9:15 AM 59.2 °F 52.2 °F 78% 30.42 in 10.0 mi ENE 12.7 mph 17.3 mph N/A   Clear
9:55 AM 61.7 °F 53.2 °F 74% 30.43 in 10.0 mi ENE 10.4 mph - N/A   Clear
10:15 AM 61.7 °F 52.5 °F 72% 30.43 in 10.0 mi NE 9.2 mph - N/A   Clear
10:35 AM 63.3 °F 52.7 °F 68% 30.44 in 10.0 mi NE 9.2 mph - N/A   Clear
10:55 AM 63.9 °F 52.5 °F 67% 30.44 in 10.0 mi NE 9.2 mph - N/A   Clear
11:15 AM 64.9 °F 52.9 °F 65% 30.44 in 10.0 mi ENE 6.9 mph - N/A   Clear
11:55 AM 66.7 °F 53.6 °F 63% 30.43 in 10.0 mi ENE 11.5 mph 17.3 mph N/A   Clear
12:35 PM 67.6 °F 54.3 °F 62% 30.42 in 10.0 mi NE 8.1 mph - N/A   Clear
12:55 PM 68.4 °F 54.9 °F 62% 30.41 in 10.0 mi ENE 8.1 mph - N/A   Clear
1:15 PM 69.3 °F 55.4 °F 61% 30.41 in 10.0 mi NE 5.8 mph 9.2 mph N/A   Clear
1:35 PM 70.3 °F 55.6 °F 59% 30.39 in 10.0 mi NE 6.9 mph - N/A   Clear
1:55 PM 71.2 °F 55.9 °F 58% 30.38 in 10.0 mi NE 4.6 mph - N/A   Clear
2:15 PM 72.0 °F 56.3 °F 58% 30.37 in 10.0 mi ENE 8.1 mph - N/A   Clear
2:35 PM 71.2 °F 55.9 °F 58% 30.36 in 10.0 mi ENE 5.8 mph 16.1 mph N/A   Clear
2:55 PM 71.6 °F 55.4 °F 57% 30.34 in 10.0 mi ENE 8.1 mph - N/A   Clear
3:15 PM 73.4 °F 56.7 °F 56% 30.34 in 10.0 mi East 10.4 mph 19.6 mph N/A   Scattered Clouds
3:35 PM 73.6 °F 56.5 °F 55% 30.33 in 10.0 mi ENE 8.1 mph - N/A   Scattered Clouds
3:55 PM 73.2 °F 56.3 °F 55% 30.33 in 10.0 mi East 10.4 mph - N/A   Clear
4:15 PM 72.9 °F 55.4 °F 54% 30.33 in 10.0 mi NE 8.1 mph - N/A   Clear
4:35 PM 73.2 °F 55.2 °F 53% 30.33 in 10.0 mi ESE 5.8 mph - N/A   Clear
4:55 PM 72.7 °F 55.6 °F 55% 30.33 in 10.0 mi East 8.1 mph - N/A   Clear
5:15 PM 72.3 °F 56.1 °F 57% 30.33 in 10.0 mi East 4.6 mph - N/A   Clear
5:55 PM 71.8 °F 56.8 °F 59% 30.33 in 10.0 mi East 3.5 mph - N/A   Clear
6:15 PM 70.9 °F 56.7 °F 61% 30.33 in 10.0 mi Calm Calm - N/A   Clear
6:35 PM 70.0 °F 57.0 °F 63% 30.32 in 10.0 mi East 5.8 mph - N/A   Clear
6:55 PM 68.4 °F 57.0 °F 67% 30.32 in 10.0 mi ENE 3.5 mph - N/A   Clear
7:15 PM 66.0 °F 57.4 °F 74% 30.33 in 10.0 mi Calm Calm - N/A   Clear
7:35 PM 63.7 °F 57.6 °F 80% 30.33 in 10.0 mi ENE 3.5 mph - N/A   Clear
8:55 PM 59.2 °F 56.7 °F 91% 30.34 in 10.0 mi Calm Calm - N/A   Clear
9:15 PM 59.0 °F 56.5 °F 91% 30.34 in 10.0 mi ENE 4.6 mph - N/A   Clear
9:35 PM 60.8 °F 56.3 °F 85% 30.34 in 10.0 mi ENE 3.5 mph - N/A   Clear
10:15 PM 59.2 °F 55.4 °F 87% 30.35 in 10.0 mi East 5.8 mph - N/A   Clear
10:35 PM 58.8 °F 55.6 °F 89% 30.35 in 10.0 mi East 4.6 mph - N/A   Clear
10:55 PM 57.2 °F 55.2 °F 93% 30.35 in 10.0 mi East 4.6 mph - N/A   Clear
11:15 PM 56.7 °F 55.4 °F 96% 30.35 in 10.0 mi East 3.5 mph - N/A   Clear
11:35 PM 54.9 °F 54.7 °F 99% 30.35 in 10.0 mi East 4.6 mph - N/A   Clear
11:55 PM 55.2 °F 55.2 °F 100% 30.34 in 10.0 mi East 4.6 mph - N/A   Clear